Rock Hill, SC

11:01 AM EDT on March 29, 2017 (GMT -0400)
Rock Hill-York County-Bryant

Weather History for KUZA - September, 2013

Change the Weather History Date:

Monday, September 2, 2013

  Actual Average Record
Temperature  
Mean Temperature 80 °F -  
Max Temperature 88 °F 85 °F 97 °F (1957)
Min Temperature 71 °F 66 °F 50 °F (1967)
Cooling Degree Days 14    
Growing Degree Days 30 (Base 50)    
Moisture  
Dew Point 72 °F    
Average Humidity 88    
Maximum Humidity 100    
Minimum Humidity 59    
Precipitation  
Precipitation 0.00 in - - ()
Sea Level Pressure  
Sea Level Pressure 29.88 in    
Wind  
Wind Speed 4 mph (SW)    
Max Wind Speed 7 mph    
Max Gust Speed -    
Visibility 6 miles    
Events Fog    
Averages and records for this station are not official NWS values.
T = Trace of Precipitation, MM = Missing Value Source: NWS Daily Summary

Daily Weather History Graph

Daily Weather History Graph

Search for Another Location

Airport or City:

Trip Planner

Search our weather history database for the weather conditions in past years. The results will help you decide how hot, cold, wet, or windy it might be!

Date:

Astronomy

Sep. 02, 2013 Rise Set
Actual Time 6:57 AM EDT 7:49 PM EDT
Civil Twilight 6:32 AM EDT 8:14 PM EDT
Nautical Twilight 6:01 AM EDT 8:45 PM EDT
Astronomical Twilight 5:30 AM EDT 9:16 PM EDT
Moon 4:17 AM EDT (9/2) 5:58 PM EDT (9/2)
Length of Visible Light 13h 42m
Length of Day
12h 51m
Waning Crescent, 8% of the Moon is Illuminated
Sep 2
Waning Crescent
Sep 5
New
Sep 12
First Quarter
Sep 19
Full
Sep 26
Last Quarter

Hourly Weather History & Observations

Time (EDT) Temp. Heat Index Dew Point Humidity Pressure Visibility Wind Dir Wind Speed Gust Speed Precip Events Conditions
12:54 AM 71.1 °F - 70.0 °F 96% 29.87 in 7.0 mi SSW 4.6 mph - N/A   Mostly Cloudy
1:54 AM 71.1 °F - 70.0 °F 96% 29.86 in 6.0 mi SW 3.5 mph - N/A   Partly Cloudy
2:54 AM 72.0 °F - 71.1 °F 97% 29.85 in 6.0 mi SW 4.6 mph - N/A   Scattered Clouds
3:54 AM 71.1 °F - 71.1 °F 100% 29.84 in 6.0 mi SSW 4.6 mph - N/A   Clear
4:27 AM 71.1 °F - 70.0 °F 96% 29.88 in 5.0 mi Calm Calm - N/A   Scattered Clouds
4:35 AM 71.1 °F - 70.0 °F 96% 29.88 in 5.0 mi Calm Calm - N/A   Mostly Cloudy
4:54 AM 72.0 °F - 71.1 °F 97% 29.85 in 6.0 mi Calm Calm - N/A   Overcast
5:54 AM 72.0 °F - 71.1 °F 97% 29.84 in 4.0 mi SW 3.5 mph - N/A   Overcast
6:20 AM 72.0 °F - 72.0 °F 100% 29.88 in 2.5 mi Calm Calm - N/A   Overcast
6:37 AM 72.0 °F - 72.0 °F 100% 29.88 in 1.0 mi Calm Calm - N/A   Overcast
6:46 AM 72.0 °F - 72.0 °F 100% 29.88 in 0.8 mi Calm Calm - N/A   Overcast
6:54 AM 72.0 °F - 72.0 °F 100% 29.85 in 0.5 mi Calm Calm - N/A Fog Fog
7:51 AM 71.6 °F - 71.6 °F 100% 29.91 in 0.8 mi SW 3.5 mph - N/A   Overcast
7:54 AM 72.0 °F - 72.0 °F 100% 29.88 in 0.5 mi SW 4.6 mph - N/A Fog Fog
8:04 AM 72.0 °F - 72.0 °F 100% 29.92 in 1.0 mi WSW 4.6 mph - N/A   Overcast
8:10 AM 72.0 °F - 72.0 °F 100% 29.92 in 0.5 mi WSW 4.6 mph - N/A Fog Fog
8:52 AM 71.6 °F - 71.6 °F 100% 29.92 in 0.8 mi WSW 6.9 mph - N/A   Overcast
8:54 AM 72.0 °F - 72.0 °F 100% 29.89 in 1.0 mi SW 5.8 mph - N/A   Overcast
9:40 AM 73.0 °F - 73.0 °F 100% 29.93 in 2.0 mi WSW 4.6 mph - N/A   Overcast
9:54 AM 73.0 °F - 73.0 °F 100% 29.91 in 3.0 mi West 4.6 mph - N/A   Overcast
10:26 AM 75.0 °F - 73.0 °F 94% 29.94 in 6.0 mi Variable 5.8 mph - N/A   Overcast
10:54 AM 79.0 °F - 73.0 °F 82% 29.91 in 7.0 mi Variable 4.6 mph - N/A   Mostly Cloudy
11:05 AM 79.0 °F - 73.0 °F 82% 29.95 in 8.0 mi SW 5.8 mph - N/A   Mostly Cloudy
11:37 AM 80.1 °F 84.2 °F 73.0 °F 79% 29.95 in 8.0 mi South 4.6 mph - N/A   Scattered Clouds
11:54 AM 81.0 °F 86.2 °F 73.9 °F 79% 29.91 in 8.0 mi South 6.9 mph - N/A   Mostly Cloudy
12:19 PM 82.0 °F 87.4 °F 73.0 °F 74% 29.94 in 8.0 mi Variable 4.6 mph - N/A   Scattered Clouds
12:54 PM 82.9 °F 88.8 °F 73.0 °F 72% 29.89 in 9.0 mi South 4.6 mph - N/A   Partly Cloudy
1:54 PM 84.9 °F 91.4 °F 73.0 °F 67% 29.88 in 9.0 mi Variable 3.5 mph - N/A   Mostly Cloudy
2:05 PM 84.0 °F 90.2 °F 73.0 °F 69% 29.92 in 9.0 mi SSW 4.6 mph - N/A   Mostly Cloudy
2:54 PM 86.0 °F 92.2 °F 72.0 °F 63% 29.85 in 10.0 mi SW 6.9 mph - N/A   Mostly Cloudy
3:54 PM 88.0 °F 94.7 °F 72.0 °F 59% 29.82 in 10.0 mi Variable 3.5 mph - N/A   Scattered Clouds
4:54 PM 86.0 °F 93.0 °F 73.0 °F 65% 29.81 in 10.0 mi West 6.9 mph - N/A   Clear
5:54 PM 86.0 °F 93.0 °F 73.0 °F 65% 29.81 in 10.0 mi West 3.5 mph - N/A   Clear
6:54 PM 84.9 °F 91.4 °F 73.0 °F 67% 29.81 in 10.0 mi SW 4.6 mph - N/A   Clear
7:54 PM 78.1 °F - 73.9 °F 87% 29.82 in 9.0 mi SSW 3.5 mph - N/A   Clear
8:54 PM 75.9 °F - 73.0 °F 91% 29.85 in 10.0 mi SW 4.6 mph - N/A   Clear
9:54 PM 75.0 °F - 72.0 °F 90% 29.86 in 10.0 mi Calm Calm - N/A   Clear
10:54 PM 75.0 °F - 72.0 °F 90% 29.86 in 9.0 mi SW 4.6 mph - N/A   Clear
11:54 PM 75.9 °F - 72.0 °F 87% 29.85 in 9.0 mi SSW 5.8 mph - N/A   Clear